Indianapolis, IN

8:45 PM EDT on September 25, 2016 (GMT -0400)
Indianapolis International

Weather History for KIND - March, 2013

Change the Weather History Date:

Wednesday, March 27, 2013

  Actual Average Record
Temperature  
Mean Temperature 34 °F 46 °F  
Max Temperature 42 °F 56 °F 84 °F (1910)
Min Temperature 25 °F 36 °F 11 °F (1955)
Degree Days  
Heating Degree Days 31 19  
Month to date heating degree days 825 635  
Since 1 July heating degree days 4836 4778  
Cooling Degree Days 0 0  
Month to date cooling degree days 0 0  
Year to date cooling degree days 0 0  
Moisture  
Dew Point 23 °F    
Average Humidity 66    
Maximum Humidity 88    
Minimum Humidity 44    
Precipitation  
Precipitation 0.00 in 0.13 in 2.27 in (1880)
Month to date precipitation 1.90 3.05  
Year to date precipitation 9.68 8.03  
Snow  
Snow 0.00 in 0.10 in 1.80 in (1913)
Month to date snowfall 14.5 2.5  
Since 1 July snowfall 34.5 25.6  
Snow Depth 1.00 in    
Sea Level Pressure  
Sea Level Pressure 30.31 in    
Wind  
Wind Speed 8 mph (WNW)    
Max Wind Speed 16 mph    
Max Gust Speed 20 mph    
Visibility 10 miles    
Events      
T = Trace of Precipitation, MM = Missing Value Source: NWS Daily Summary

Daily Weather History Graph

Daily Weather History Graph

Search for Another Location

Airport or City:

Trip Planner

Search our weather history database for the weather conditions in past years. The results will help you decide how hot, cold, wet, or windy it might be!

Date:

Astronomy

Mar. 27, 2013 Rise Set
Actual Time 7:36 AM EDT 8:04 PM EDT
Civil Twilight 7:09 AM EDT 8:31 PM EDT
Nautical Twilight 6:38 AM EDT 9:03 PM EDT
Astronomical Twilight 6:05 AM EDT 9:36 PM EDT
Moon 8:47 PM EDT (3/27) 7:27 AM EDT (3/27)
Length of Visible Light 13h 21m
Length of Day
12h 27m
Full, 100% of the Moon is Illuminated
Mar 27
Full
Apr 3
Last Quarter
Apr 10
New
Apr 18
First Quarter
Apr 25
Full

Hourly Weather History & Observations

Time (EDT) Temp. Windchill Dew Point Humidity Pressure Visibility Wind Dir Wind Speed Gust Speed Precip Events Conditions
12:54 AM 30.0 °F 22.4 °F 25.0 °F 82% 30.27 in 10.0 mi West 8.1 mph - N/A   Mostly Cloudy
1:54 AM 28.9 °F 21.9 °F 24.1 °F 82% 30.28 in 10.0 mi WSW 6.9 mph - N/A   Partly Cloudy
2:54 AM 27.0 °F 19.5 °F 23.0 °F 85% 30.27 in 10.0 mi WSW 6.9 mph - N/A   Partly Cloudy
3:54 AM 27.0 °F 19.5 °F 23.0 °F 85% 30.27 in 10.0 mi WSW 6.9 mph - N/A   Clear
4:54 AM 28.0 °F 20.0 °F 23.0 °F 81% 30.28 in 10.0 mi West 8.1 mph - N/A   Clear
5:54 AM 27.0 °F 19.5 °F 23.0 °F 85% 30.28 in 10.0 mi WSW 6.9 mph - N/A   Mostly Cloudy
6:54 AM 25.0 °F 17.1 °F 21.9 °F 88% 30.29 in 10.0 mi WSW 6.9 mph - N/A   Partly Cloudy
7:54 AM 26.1 °F 18.4 °F 23.0 °F 88% 30.30 in 8.0 mi WSW 6.9 mph - N/A   Scattered Clouds
8:54 AM 28.9 °F 22.8 °F 25.0 °F 85% 30.32 in 8.0 mi West 5.8 mph - N/A   Partly Cloudy
9:54 AM 34.0 °F 28.0 °F 26.1 °F 73% 30.33 in 10.0 mi West 6.9 mph - N/A   Scattered Clouds
10:54 AM 37.9 °F 32.7 °F 27.0 °F 65% 30.34 in 10.0 mi West 6.9 mph - N/A   Mostly Cloudy
11:54 AM 39.0 °F 34.0 °F 27.0 °F 62% 30.33 in 10.0 mi West 6.9 mph - N/A   Mostly Cloudy
12:54 PM 39.9 °F 33.4 °F 25.0 °F 55% 30.34 in 10.0 mi West 10.4 mph - N/A   Mostly Cloudy
1:54 PM 39.0 °F 31.8 °F 21.0 °F 49% 30.34 in 10.0 mi West 11.5 mph - N/A   Mostly Cloudy
2:54 PM 39.9 °F 33.4 °F 23.0 °F 51% 30.33 in 10.0 mi West 10.4 mph - N/A   Mostly Cloudy
3:54 PM 41.0 °F 33.9 °F 24.1 °F 51% 30.32 in 10.0 mi NW 12.7 mph - N/A   Mostly Cloudy
4:54 PM 41.0 °F 33.5 °F 21.9 °F 47% 30.31 in 10.0 mi NW 13.8 mph - N/A   Mostly Cloudy
5:54 PM 39.9 °F 32.9 °F 21.9 °F 49% 30.31 in 10.0 mi WNW 11.5 mph - N/A   Mostly Cloudy
6:54 PM 39.0 °F 32.3 °F 19.9 °F 46% 30.32 in 10.0 mi NNW 10.4 mph - N/A   Mostly Cloudy
7:54 PM 35.1 °F 29.3 °F 21.0 °F 57% 30.32 in 10.0 mi NW 6.9 mph - N/A   Scattered Clouds
8:54 PM 33.1 °F 27.7 °F 19.9 °F 59% 30.32 in 10.0 mi NW 5.8 mph - N/A   Scattered Clouds
9:54 PM 32.0 °F 25.6 °F 19.9 °F 61% 30.33 in 10.0 mi NNW 6.9 mph - N/A   Partly Cloudy
10:54 PM 30.0 °F 26.5 °F 19.9 °F 66% 30.33 in 10.0 mi NW 3.5 mph - N/A   Partly Cloudy
11:54 PM 30.9 °F 26.2 °F 19.9 °F 64% 30.33 in 10.0 mi NW 4.6 mph - N/A   Partly Cloudy